Rome Ciampino, Italy

12:06 PM CET on February 12, 2016 (GMT +0100)
Ciampino

Weather History for LIRA - September, 2011

Change the Weather History Date:

Tuesday, September 13, 2011

  Actual Average Record
Temperature  
Mean Temperature 78 °F -  
Max Temperature 91 °F 76 °F 91 °F (2011)
Min Temperature 64 °F 56 °F 55 °F (1998)
Cooling Degree Days 12    
Growing Degree Days 28 (Base 50)    
Moisture  
Dew Point 64 °F    
Average Humidity 69    
Maximum Humidity 100    
Minimum Humidity 35    
Precipitation  
Precipitation 0.00 in 0.10 in - ()
Sea Level Pressure  
Sea Level Pressure 29.95 in    
Wind  
Wind Speed 3 mph ()    
Max Wind Speed 9 mph    
Max Gust Speed -    
Visibility 6.2 miles    
Events      
Averages and records for this station are not official NWS values.
T = Trace of Precipitation, MM = Missing Value Source: Averaged Metar Reports

Daily Weather History Graph

Daily Weather History Graph

Search for Another Location

Airport or City:

Trip Planner

Search our weather history database for the weather conditions in past years. The results will help you decide how hot, cold, wet, or windy it might be!

Date:

Astronomy

Sep. 13, 2011 Rise Set
Actual Time 6:47 AM CEST 7:23 PM CEST
Civil Twilight 6:19 AM CEST 7:51 PM CEST
Nautical Twilight 5:46 AM CEST 8:24 PM CEST
Astronomical Twilight 5:11 AM CEST 8:58 PM CEST
Moon 7:29 PM CEST (9/13) 7:46 AM CEST (9/13)
Length of Visible Light 13h 32m
Length of Day
12h 36m
Full, 99% of the Moon is Illuminated
Sep 13
Full
Sep 20
Last Quarter
Sep 27
New
Oct 4
First Quarter
Oct 12
Full

Hourly Weather History & Observations

Time (CEST) Temp. Heat Index Dew Point Humidity Pressure Visibility Wind Dir Wind Speed Gust Speed Precip Events Conditions
12:15 AM 69.8 °F - 66.2 °F 88% 29.98 in - ESE 1.2 mph - N/A   Clear
12:45 AM 69.8 °F - 68.0 °F 94% 29.98 in - East 2.3 mph - N/A   Clear
1:15 AM 69.8 °F - 66.2 °F 88% 29.98 in - ENE 2.3 mph - N/A   Clear
1:45 AM 68.0 °F - 68.0 °F 100% 29.98 in - NE 3.5 mph - N/A   Clear
2:15 AM 68.0 °F - 68.0 °F 100% 29.95 in - East 2.3 mph - N/A   Clear
2:45 AM 68.0 °F - 66.2 °F 94% 29.95 in - East 3.5 mph - N/A   Clear
3:15 AM 68.0 °F - 66.2 °F 94% 29.95 in - ENE 3.5 mph - N/A   Clear
3:45 AM 68.0 °F - 66.2 °F 94% 29.95 in - NNE 3.5 mph - N/A   Clear
4:15 AM 68.0 °F - 64.4 °F 88% 29.95 in - NE 3.5 mph - N/A   Clear
4:45 AM 68.0 °F - 66.2 °F 94% 29.95 in - North 2.3 mph - N/A   Clear
5:15 AM 66.2 °F - 64.4 °F 94% 29.95 in - NE 2.3 mph - N/A   Clear
5:45 AM 66.2 °F - 64.4 °F 94% 29.95 in - NNE 2.3 mph - N/A   Clear
6:15 AM 64.4 °F - 64.4 °F 100% 29.95 in 6.2 mi NE 3.5 mph - N/A   Partly Cloudy
6:45 AM 64.4 °F - 64.4 °F 100% 29.95 in 6.2 mi NE 3.5 mph - N/A   Partly Cloudy
7:15 AM 64.4 °F - 62.6 °F 94% 29.95 in 6.2 mi NE 3.5 mph - N/A   Partly Cloudy
7:45 AM 64.4 °F - 64.4 °F 100% 29.95 in 6.2 mi NNE 2.3 mph - N/A   Scattered Clouds
8:15 AM 68.0 °F - 66.2 °F 94% 29.95 in 6.2 mi NE 2.3 mph - N/A   Partly Cloudy
8:45 AM 71.6 °F - 66.2 °F 83% 29.95 in 6.2 mi NNE 3.5 mph - N/A   Partly Cloudy
9:15 AM 73.4 °F - 66.2 °F 78% 29.98 in - NNE 3.5 mph - N/A   Clear
9:45 AM 75.2 °F - 66.2 °F 73% 29.98 in - NNE 3.5 mph - N/A   Clear
10:15 AM 77.0 °F - 64.4 °F 65% 29.98 in 6.2 mi North 1.2 mph - N/A   Partly Cloudy
10:45 AM 78.8 °F - 64.4 °F 61% 29.98 in 6.2 mi East 2.3 mph - N/A   Partly Cloudy
11:15 AM 82.4 °F 83.9 °F 64.4 °F 54% 29.98 in 6.2 mi NW 2.3 mph - N/A   Partly Cloudy
11:45 AM 86.0 °F 86.6 °F 62.6 °F 45% 29.98 in 6.2 mi South 3.5 mph - N/A   Partly Cloudy
12:15 PM 87.8 °F 88.5 °F 62.6 °F 43% 29.98 in 6.2 mi SW 4.6 mph - N/A   Partly Cloudy
12:45 PM 91.4 °F 91.4 °F 60.8 °F 36% 29.98 in 6.2 mi South 4.6 mph - N/A   Partly Cloudy
1:15 PM 87.8 °F 87.1 °F 59.0 °F 38% 29.95 in 6.2 mi North 3.5 mph - N/A   Partly Cloudy
1:45 PM 89.6 °F 88.9 °F 59.0 °F 36% 29.95 in 6.2 mi West 5.8 mph - N/A   Partly Cloudy
2:15 PM 89.6 °F 88.9 °F 59.0 °F 36% 29.95 in 6.2 mi WSW 8.1 mph - N/A   Partly Cloudy
2:45 PM 87.8 °F 87.1 °F 59.0 °F 38% 29.95 in 6.2 mi West 9.2 mph - N/A   Partly Cloudy
3:15 PM 89.6 °F 88.9 °F 59.0 °F 36% 29.95 in 6.2 mi West 9.2 mph - N/A   Partly Cloudy
3:45 PM 89.6 °F 88.9 °F 59.0 °F 36% 29.92 in 6.2 mi SW 6.9 mph - N/A   Partly Cloudy
4:15 PM 87.8 °F 87.1 °F 59.0 °F 38% 29.92 in 6.2 mi SW 8.1 mph - N/A   Partly Cloudy
4:45 PM 87.8 °F 86.5 °F 57.2 °F 35% 29.92 in 6.2 mi WSW 5.8 mph - N/A   Partly Cloudy
5:15 PM 87.8 °F 86.5 °F 57.2 °F 35% 29.92 in 6.2 mi SW 6.9 mph - N/A   Partly Cloudy
5:45 PM 86.0 °F 86.1 °F 60.8 °F 43% 29.92 in 6.2 mi West 6.9 mph - N/A   Partly Cloudy
6:15 PM 84.2 °F 83.8 °F 59.0 °F 42% 29.92 in 6.2 mi West 6.9 mph - N/A   Partly Cloudy
6:45 PM 82.4 °F 82.9 °F 60.8 °F 48% 29.92 in 6.2 mi West 6.9 mph - N/A   Partly Cloudy
7:15 PM 82.4 °F 82.9 °F 60.8 °F 48% 29.92 in 6.2 mi WNW 2.3 mph - N/A   Partly Cloudy
7:45 PM 82.4 °F 83.4 °F 62.6 °F 51% 29.92 in 6.2 mi WSW 2.3 mph - N/A   Partly Cloudy
8:15 PM 78.8 °F - 62.6 °F 57% 29.92 in 6.2 mi WSW 3.5 mph - N/A   Partly Cloudy
8:45 PM 77.0 °F - 64.4 °F 65% 29.92 in 6.2 mi WSW 3.5 mph - N/A   Partly Cloudy
9:15 PM 77.0 °F - 66.2 °F 69% 29.92 in 6.2 mi SW 1.2 mph - N/A   Partly Cloudy
9:45 PM 75.2 °F - 69.8 °F 83% 29.92 in - West 1.2 mph - N/A   Clear
10:15 PM 73.4 °F - 69.8 °F 88% 29.92 in - Calm Calm - N/A   Clear
10:45 PM 73.4 °F - 69.8 °F 88% 29.92 in - Calm Calm - N/A   Clear
11:15 PM 73.4 °F - 62.6 °F 69% 29.92 in - ENE 2.3 mph - N/A   Clear
11:45 PM 73.4 °F - 60.8 °F 65% 29.95 in - NNE 2.3 mph - N/A   Clear